Previsão horária em Juan Rodríguez Clara

Hoje, 22 Junho, Terça-feira

Tempo Temperatura Precipitação Vento Pressão Humidade
00:00 +28°C° 0 mm 7 m/s 746 mmHg 75%
01:00 +28°C° 0 mm 6 m/s 746 mmHg 75%
02:00 +27°C° 0 mm 6 m/s 746 mmHg 76%
03:00 +27°C° 0 mm 5 m/s 746 mmHg 77%
04:00 +27°C° 0 mm 5 m/s 746 mmHg 78%
05:00 +26°C° 0 mm 4 m/s 746 mmHg 80%
06:00 +26°C° 0 mm 4 m/s 746 mmHg 82%
07:00 +27°C° 0 mm 4 m/s 747 mmHg 79%
08:00 +29°C° 0 mm 4 m/s 747 mmHg 76%
09:00 +30°C° 0 mm 4 m/s 748 mmHg 74%
10:00 +32°C° 0 mm 4 m/s 748 mmHg 70%
11:00 +33°C° 0 mm 3 m/s 747 mmHg 66%
12:00 +34°C° 0 mm 3 m/s 747 mmHg 62%
13:00 +35°C° 0 mm 3 m/s 747 mmHg 60%
14:00 +35°C° 0 mm 3 m/s 746 mmHg 59%
15:00 +36°C° 0 mm 3 m/s 746 mmHg 57%
16:00 +35°C° 0 mm 3 m/s 746 mmHg 63%
17:00 +34°C° 0 mm 3 m/s 746 mmHg 68%
18:00 +33°C° 0 mm 3 m/s 746 mmHg 74%
19:00 +30°C° 0.1 mm 3 m/s 746 mmHg 74%
20:00 +29°C° 0.1 mm 3 m/s 747 mmHg 74%
21:00 +28°C° 0.1 mm 3 m/s 747 mmHg 74%
22:00 +28°C° 0.2 mm 3 m/s 748 mmHg 78%
23:00 +27°C° 0.2 mm 3 m/s 748 mmHg 82%

Amanhã, 23 Junho, Quarta-feira

Tempo Temperatura Precipitação Vento Pressão Humidade
00:00 +26°C° 0.2 mm 3 m/s 748 mmHg 86%
01:00 +26°C° 0.1 mm 2 m/s 748 mmHg 88%
02:00 +26°C° 0.1 mm 2 m/s 748 mmHg 91%
03:00 +25°C° 0.1 mm 1 m/s 747 mmHg 93%
04:00 +25°C° 0 mm 1 m/s 748 mmHg 94%
05:00 +25°C° 0 mm 1 m/s 748 mmHg 95%
06:00 +25°C° 0 mm 1 m/s 748 mmHg 96%
07:00 +26°C° 0 mm 1 m/s 749 mmHg 92%
08:00 +28°C° 0 mm 1 m/s 749 mmHg 88%
09:00 +29°C° 0 mm 1 m/s 750 mmHg 84%
10:00 +30°C° 0 mm 1 m/s 750 mmHg 80%
11:00 +31°C° 0 mm 1 m/s 749 mmHg 75%
12:00 +32°C° 0 mm 1 m/s 749 mmHg 71%
13:00 +32°C° 0 mm 1 m/s 749 mmHg 70%
14:00 +32°C° 0 mm 1 m/s 748 mmHg 69%
15:00 +32°C° 0 mm 1 m/s 748 mmHg 68%
16:00 +32°C° 0.1 mm 1 m/s 748 mmHg 71%
17:00 +31°C° 0.1 mm 1 m/s 748 mmHg 74%
18:00 +31°C° 0.1 mm 1 m/s 748 mmHg 77%
19:00 +30°C° 0.5 mm 1 m/s 748 mmHg 80%
20:00 +29°C° 0.5 mm 1 m/s 749 mmHg 83%
21:00 +28°C° 0.5 mm 1 m/s 749 mmHg 85%
22:00 +27°C° 0.1 mm 1 m/s 749 mmHg 86%
23:00 +27°C° 0.1 mm 1 m/s 749 mmHg 88%

Depois de amanhã, 24 Junho, Quinta-feira

Tempo Temperatura Precipitação Vento Pressão Humidade
00:00 +27°C° 0.1 mm 1 m/s 749 mmHg 89%
01:00 +26°C° 1.3 mm 1 m/s 749 mmHg 91%
02:00 +26°C° 1.3 mm 1 m/s 749 mmHg 92%
03:00 +25°C° 1.3 mm 1 m/s 749 mmHg 94%
04:00 +25°C° 0.4 mm 1 m/s 749 mmHg 94%
05:00 +25°C° 0.4 mm 1 m/s 749 mmHg 94%
06:00 +25°C° 0.4 mm 1 m/s 749 mmHg 94%
07:00 +26°C° 0.1 mm 1 m/s 750 mmHg 91%
08:00 +27°C° 0.1 mm 1 m/s 750 mmHg 89%
09:00 +28°C° 0.1 mm 1 m/s 750 mmHg 86%
10:00 +28°C° 0.7 mm 1 m/s 750 mmHg 83%
11:00 +29°C° 0.7 mm 1 m/s 750 mmHg 79%
12:00 +30°C° 0.7 mm 1 m/s 749 mmHg 76%
13:00 +30°C° 0.1 mm 1 m/s 749 mmHg 74%
14:00 +31°C° 0.1 mm 1 m/s 748 mmHg 71%
15:00 +31°C° 0.1 mm 1 m/s 748 mmHg 69%
16:00 +31°C° 0.7 mm 1 m/s 748 mmHg 72%
17:00 +30°C° 0.7 mm 1 m/s 748 mmHg 76%
18:00 +29°C° 0.7 mm 1 m/s 748 mmHg 80%
19:00 +28°C° 0.6 mm 1 m/s 749 mmHg 83%
20:00 +27°C° 0.6 mm 1 m/s 749 mmHg 86%
21:00 +26°C° 0.6 mm 1 m/s 749 mmHg 89%
22:00 +26°C° 0.5 mm 1 m/s 750 mmHg 90%
23:00 +26°C° 0.5 mm 1 m/s 750 mmHg 91%

25 Junho, Sexta-feira

Tempo Temperatura Precipitação Vento Pressão Humidade
00:00 +25°C° 0.5 mm 1 m/s 750 mmHg 92%
01:00 +25°C° 0.8 mm 1 m/s 749 mmHg 94%
02:00 +25°C° 0.8 mm 1 m/s 749 mmHg 95%
03:00 +25°C° 0.8 mm 1 m/s 749 mmHg 96%
04:00 +25°C° 0.3 mm 1 m/s 749 mmHg 96%
05:00 +25°C° 0.3 mm 1 m/s 749 mmHg 96%
06:00 +25°C° 0.3 mm 1 m/s 749 mmHg 96%
07:00 +25°C° 0.3 mm 1 m/s 750 mmHg 93%
08:00 +26°C° 0.3 mm 2 m/s 750 mmHg 90%
09:00 +27°C° 0.3 mm 3 m/s 750 mmHg 87%
10:00 +27°C° 0 mm 2 m/s 750 mmHg 85%
11:00 +28°C° 0 mm 2 m/s 749 mmHg 83%
12:00 +28°C° 0 mm 2 m/s 749 mmHg 81%
13:00 +29°C° 0 mm 2 m/s 749 mmHg 77%
14:00 +30°C° 0 mm 2 m/s 748 mmHg 73%
15:00 +31°C° 0 mm 2 m/s 747 mmHg 69%
16:00 +31°C° 0.7 mm 1 m/s 747 mmHg 72%
17:00 +30°C° 0.7 mm 1 m/s 747 mmHg 75%
18:00 +30°C° 0.7 mm 1 m/s 747 mmHg 78%
19:00 +29°C° 0.9 mm 1 m/s 748 mmHg 81%
20:00 +27°C° 0.9 mm 1 m/s 748 mmHg 84%
21:00 +26°C° 0.9 mm 1 m/s 748 mmHg 87%
22:00 +26°C° 1.6 mm 1 m/s 749 mmHg 90%
23:00 +25°C° 1.6 mm 2 m/s 749 mmHg 92%

26 Junho, Sábado

Tempo Temperatura Precipitação Vento Pressão Humidade
00:00 +24°C° 1.6 mm 2 m/s 749 mmHg 95%
01:00 +25°C° 0.4 mm 2 m/s 749 mmHg 94%
02:00 +25°C° 0.4 mm 1 m/s 748 mmHg 94%
03:00 +25°C° 0.4 mm 1 m/s 747 mmHg 93%
04:00 +24°C° 0 mm 1 m/s 747 mmHg 93%
05:00 +24°C° 0 mm 1 m/s 747 mmHg 93%
06:00 +24°C° 0 mm 1 m/s 748 mmHg 94%
07:00 +25°C° 0 mm 1 m/s 748 mmHg 89%
08:00 +27°C° 0 mm 1 m/s 748 mmHg 84%
09:00 +28°C° 0 mm 1 m/s 748 mmHg 79%
10:00 +29°C° 0 mm 1 m/s 748 mmHg 74%
11:00 +30°C° 0 mm 1 m/s 748 mmHg 69%
12:00 +32°C° 0 mm 1 m/s 747 mmHg 63%
13:00 +32°C° 0.1 mm 1 m/s 747 mmHg 62%
14:00 +32°C° 0.1 mm 2 m/s 747 mmHg 61%
15:00 +32°C° 0.1 mm 2 m/s 746 mmHg 60%
16:00 +31°C° 0.9 mm 2 m/s 746 mmHg 68%
17:00 +30°C° 0.9 mm 2 m/s 746 mmHg 75%
18:00 +28°C° 0.9 mm 2 m/s 747 mmHg 82%
19:00 +27°C° 0.2 mm 2 m/s 747 mmHg 85%
20:00 +27°C° 0.2 mm 2 m/s 747 mmHg 88%
21:00 +26°C° 0.2 mm 2 m/s 747 mmHg 90%
22:00 +25°C° 0 mm 3 m/s 748 mmHg 91%
23:00 +25°C° 0 mm 3 m/s 748 mmHg 91%

27 Junho, Domingo

Tempo Temperatura Precipitação Vento Pressão Humidade
00:00 +25°C° 0 mm 3 m/s 748 mmHg 91%
01:00 +25°C° 0 mm 2 m/s 747 mmHg 90%
02:00 +25°C° 0 mm 2 m/s 747 mmHg 90%
03:00 +25°C° 0 mm 1 m/s 746 mmHg 89%
04:00 +25°C° 0 mm 1 m/s 746 mmHg 89%
05:00 +24°C° 0 mm 2 m/s 747 mmHg 89%
06:00 +24°C° 0 mm 2 m/s 747 mmHg 89%
07:00 +25°C° 0 mm 2 m/s 747 mmHg 87%
08:00 +26°C° 0 mm 2 m/s 748 mmHg 85%
09:00 +26°C° 0 mm 2 m/s 748 mmHg 83%
10:00 +27°C° 0 mm 1 m/s 748 mmHg 81%
11:00 +27°C° 0 mm 1 m/s 748 mmHg 79%
12:00 +28°C° 0 mm 1 m/s 748 mmHg 77%
13:00 +28°C° 0 mm 1 m/s 747 mmHg 76%
14:00 +26°C° 0 mm 0 m/s 747 mmHg 75%
15:00 +26°C° 0 mm 0 m/s 747 mmHg 75%
16:00 +26°C° 0 mm 0 m/s 747 mmHg 77%
17:00 +26°C° 0 mm 0 m/s 747 mmHg 80%
18:00 +28°C° 0 mm 1 m/s 747 mmHg 83%
19:00 +27°C° 0 mm 1 m/s 748 mmHg 84%
20:00 +27°C° 0 mm 1 m/s 748 mmHg 85%
21:00 +26°C° 0 mm 2 m/s 748 mmHg 86%
22:00 +26°C° 0 mm 2 m/s 748 mmHg 87%
23:00 +25°C° 0 mm 2 m/s 748 mmHg 88%
Mostrar mais

Necessitamos do seu Consentimento

A Meteoprog e os seus Fornecedores de Serviços podem armazenar e aceder a dados pessoais como cookies, identificadores do dispositivo ou outras tecnologias semelhantes existentes no seu dispositivo e processar estes dados para personalizar conteúdos e anúncios, assim como funcionalidades nas redes sociais e análise de tráfego.

  • Armazenar e/ou aceder a informações no seu dispositivo

    Os cookies, identificadores do dispositivo ou outras informações podem ser armazenados ou acedidos no seu dispositivo, para os fins acima indicados.

  • Anúncios e conteúdos personalizados, medição de anúncios e conteúdos, dados sobre o público-alvo e desenvolvimento de produtos

    Os anúncios e os conteúdos podem ser personalizados com base num perfil. Podem ser adicionados dados adicionais para uma maior personalização dos anúncios e dos conteúdos. A eficácia dos anúncios e dos conteúdos pode ser medida. Podem ser obtidas informações sobre o público que visualizou os anúncios e os conteúdos. Estes dados podem ser usados para desenvolver ou melhorar sistemas, softwares ou a experiência do utilizador.

Ao clicar em "Eu concordo”, permitirá o uso de cookies, identificadores do dispositivo e web beacons mencionados ou outras tecnologias semelhantes. As configurações do navegador do seu dispositivo podem ser alteradas.

Para certos fins, podem ser invocados interesses legítimos ao invés de consentimento. Pode ler mais informação sobre este assunto na nossa Política de Privacidade e Cookies.